Αρχική σελίδα
METAR-TAF:

METAR-TAF

Αεροδρόμια :

Στίλγουοτερ, Οκλαχόμα, Ηνωμένες Πολιτείες Αμερικής

γεωγραφικό πλάτος: 36-09-44N, γεωγραφικό μήκος: 097-05-21W, υψόμετρο: 300 μ

Παρών καιρός

Η αναφορά έγινε 37 λεπτά πριν, στις 14:53 UTC
Άνεμος 7 kt από Α/BA
Θερμοκρασία 11°C
Υγρασία 40%
Πίεση 1028 hPa
Ορατότητα: 16.1 χλμ
Καθαρός ουρανός

METAR: KSWO 181453Z 07007KT 10SM CLR 11/M02 A3036 RMK AO2 SLP277 T01061017 53015

Χρόνος: 10:30 (15:30 UTC)


TAF: λείπει

Μετεωρολογικές αναφορές και προγνώσεις για περισσότερα από 4000 αεροδρόμια (δελτία METAR και TAF).

Οι διαθέσιμοι σταθμοί απεικονίζονται στο χάρτη με κίτρινες και κόκκινες κουκκίδες.

Μετακινήστε το ποντίκι πάνω από τις κουκκίδες για να δείτε το όνομα του σταθμού.

Στη συνέχεια, κάντε κλικ για να δείτε τις μετεωρολογικές αναφορές και τις προγνώσεις καιρού.

Για να αλλάξετε το χάρτη: κάντε κλικ στα πράσινα κουμπιά με τον μαύρο σταυρό για να ζουμάρετε, στο πράσινο κουμπί με την παύλα για να αφαιρέσετε το ζουμ ή στα πράσινα βέλη για να αντιπαραβάλλετε χάρτες.


METAR-TAF: